User: anonymous   Login
Location: Unspecified
(0.0000°N, 0.0000°E)
Time: 06:11:13
(UTC+00:00)
Language:

Landsat 7 - Orbit

View from above orbital plane
View from above orbital plane
View from above satellite
View from above satellite

Ground track
Ground track

The orbit data is extracted from the following two-line orbital elements,

1 25682U 99020A   17052.76059876 -.00000051  00000-0 -11470-5 0  9992
2 25682  98.2222 125.4577 0001099  55.4223 304.7058 14.57101765949782
Epoch (UTC): 21 February 2017 18:15:15
Eccentricity: 0.0001099
inclination: 98.2222°
perigee height: 702 km
apogee height: 703 km
right ascension of ascending node: 125.4577°
argument of perigee: 55.4223°
revolutions per day: 14.57101765
mean anomaly at epoch: 304.7058°
orbit number at epoch: 94978

The dashed part of the orbit path shows where the satellite is in the earth's shadow,  

DLR